Terminal Aerodrome Forecast
Issued by NWS Sterling, VA

Current Version | Previous Version | Graphics & Text | Print | Product List | Glossary On
Versions: 1 2 3 4 5 6 7 8 9 10 11 12 13 14 15 16 17 18 19 20 21 22
000
FTUS41 KLWX 171400 AAA
TAFDCA
TAF AMD
KDCA 171439Z 1715/1812 30006KT P6SM FEW050
     FM171600 29012G22KT P6SM SCT040
     FM180200 29009KT P6SM FEW050=

USA.gov is the U.S. government's official web portal to all federal, state and local government web resources and services.